x

9442396 - La Push, Wa (lapw1) Weather Station

3:30 - Sat 25th Oct 2014 All times are PDT. -7 hours from GMT.

  • Wind
    6mph, 9mph gusts
  • Sea Temp 58°f
  • Air Temp 55°f
  • Sea Pressure 988.2mb
  • 9442396 - La Push, Wa
  • 9442396 - La Push, Wa

More Historic Weather Station data

Upgrade to MSW Pro to gain access to the past 30 days of data for over 8000 Wavebouys and Weather Stations around the globe.

Join Pro

Comparision Forecast

View Surf forecast
   
sam. 10/25 3:30 6 9 mph 988.2mb 58f 55f
3:24 6 11 mph 988.3mb 59f 55f
3:18 2 8 mph 988.4mb 59f 55f
3:12 2 8 mph 988.4mb 59f 55f
3:06 6 8 mph 988.4mb 59f 55f
3:00 5 8 mph 988.4mb 59f 55f
2:36 7 11 mph 988.8mb 59f 55f
2:30 6 9 mph 989mb 59f 55f
2:24 5 10 mph 989.1mb 59f 55f
2:18 5 8 mph 989.4mb 59f 55f
2:12 6 8 mph 989.4mb 59f 55f
2:06 5 8 mph 989.5mb 59f 55f
2:00 6 9 mph 989.6mb 59f 55f
1:36 6 9 mph 990.1mb 59f 55f
1:30 6 13 mph 990.1mb 59f 55f
1:24 2 9 mph 990.3mb 59f 55f
1:18 7 9 mph 990.6mb 59f 55f
1:12 5 8 mph 990.7mb 59f 55f
1:06 5 7 mph 990.8mb 59f 55f
1:00 5 7 mph 990.8mb 59f 55f
12:36 3 8 mph 991.2mb 59f 56f
12:30 3 7 mph 991.4mb 59f 55f
12:24 5 9 mph 991.7mb 59f 55f
12:18 3 7 mph 991.9mb 59f 55f
12:12 6 10 mph 992mb 59f 56f
12:06 6 15 mph 992.1mb 59f 56f
12:00 8 17 mph 992.2mb 59f 56f
11:36 3 13 mph 992.3mb 59f 56f
11:30 6 13 mph 992.3mb 58f 56f
11:24 7 13 mph 992.4mb 58f 56f
11:18 7 14 mph 992.6mb 58f 57f
11:12 8 14 mph 992.7mb 58f 57f
11:06 8 13 mph 992.8mb 58f 58f
11:00 8 16 mph 992.9mb 58f 58f
10:36 9 18 mph 993.2mb 57f 59f
10:30 9 13 mph 993.3mb 57f 59f
10:24 8 23 mph 993.4mb 56f 58f
10:18 10 18 mph 993.6mb 56f 58f
10:12 11 20 mph 993.7mb 56f 58f
10:06 8 15 mph 993.9mb 55f 58f
10:00 9 17 mph 994.1mb 55f 58f
9:36 15 21 mph 994.5mb 51f 58f
9:30 10 25 mph 994.6mb 50f 58f
9:24 11 18 mph 994.6mb 50f 58f
9:18 14 22 mph 994.7mb 50f 58f
9:12 13 28 mph 994.8mb 50f 57f
9:06 10 20 mph 994.8mb 50f 58f
9:00 13 26 mph 994.8mb 50f 58f
8:36 8 26 mph 994.6mb 50f 57f
8:30 10 22 mph 994.5mb 50f 58f
8:24 16 25 mph 994.4mb 50f 57f
8:18 11 18 mph 994.5mb 50f 56f
8:12 9 16 mph 994.5mb 50f 55f
8:06 11 23 mph 994.5mb 50f 55f
8:00 13 17 mph 994.3mb 50f 55f
7:36 9 20 mph 994.2mb 50f 56f
7:30 10 15 mph 994.8mb 50f 56f
7:24 8 21 mph 994.9mb 50f 56f
7:18 9 22 mph 995.2mb 50f 57f
7:12 14 22 mph 995.4mb 50f 57f
7:06 11 29 mph 995.6mb 50f 57f
7:00 14 31 mph 995.7mb 50f 57f
6:36 13 24 mph 995.7mb 51f 58f
6:30 13 22 mph 995.5mb 51f 58f
6:24 14 24 mph 995.3mb 51f 57f
6:18 11 16 mph 995mb 51f 56f
6:12 7 10 mph 994.9mb 51f 56f
6:06 7 10 mph 994.8mb 51f 56f
6:00 8 16 mph 994.9mb 51f 55f
5:36 7 11 mph 994.8mb 52f 54f
5:30 9 11 mph 994.8mb 52f 53f
5:24 7 11 mph 995.1mb 53f 52f
5:18 7 14 mph 995.1mb 53f 52f
5:12 7 11 mph 995.2mb 53f 52f
5:06 8 14 mph 995.2mb 54f 51f
5:00 7 14 mph 995.3mb 54f 51f
4:36 8 13 mph 995.8mb 56f 51f
4:30 11 15 mph 995.7mb 56f 51f
4:24 8 13 mph 996mb 57f 50f
4:18 9 14 mph 996.1mb 57f 50f
4:12 8 13 mph 996.5mb 58f 50f
4:06 10 16 mph 996.8mb 58f 50f
4:00 9 14 mph 996.8mb 58f 50f
3:36 9 15 mph 997.8mb 58f 50f
3:30 7 13 mph 998.4mb 58f 50f
3:24 8 14 mph 998.5mb 58f 50f
3:18 6 16 mph 998.7mb 58f 50f
3:12 9 11 mph 998.7mb 58f 50f
3:06 9 13 mph 998.9mb 58f 49f
3:00 9 17 mph 999.1mb 58f 49f
2:36 13 17 mph 999.7mb 58f 49f
2:30 9 14 mph 1000.1mb 58f 49f
2:24 8 13 mph 1000.4mb 58f 49f
2:18 8 11 mph 1000.7mb 58f 49f
2:12 5 7 mph 1001mb 58f 49f
2:06 5 9 mph 1001mb 58f 49f
2:00 6 11 mph 1001.2mb 58f 49f
1:36 7 13 mph 1001.6mb 58f 49f
1:30 7 11 mph 1002mb 58f 49f
1:24 8 14 mph 1002mb 58f 49f
1:18 8 11 mph 1002.3mb 58f 49f
1:12 5 11 mph 1002.5mb 58f 49f
1:06 6 14 mph 1002.6mb 58f 49f
1:00 8 11 mph 1002.6mb 58f 49f
12:36 6 9 mph 1003.6mb 58f 49f
12:30 7 10 mph 1003.9mb 58f 49f
12:24 7 11 mph 1003.9mb 58f 49f
12:18 6 10 mph 1004mb 57f 49f
12:12 5 13 mph 1004mb 57f 49f
12:06 6 11 mph 1004mb 57f 49f
12:00 6 10 mph 1004.2mb 57f 49f
ven. 10/24 11:36 6 10 mph 1005mb 55f 49f
11:30 5 7 mph 1005.3mb 54f 49f
11:24 3 7 mph 1005.5mb 52f 49f
11:18 3 6 mph 1005.7mb 51f 49f
11:12 2 6 mph 1005.9mb 50f 49f
11:06 5 6 mph 1006mb 50f 49f
11:00 3 7 mph 1006.2mb 50f 50f
10:36 6 8 mph 1006.8mb 50f 50f
10:30 5 8 mph 1006.7mb 50f 50f
10:24 5 8 mph 1006.8mb 50f 50f
10:18 6 8 mph 1006.8mb 50f 50f
10:12 6 8 mph 1006.9mb 50f 50f
10:06 6 8 mph 1007.2mb 50f 50f
10:00 7 10 mph 1007.5mb 50f 50f
9:36 7 9 mph 1008mb 50f 50f
9:30 8 11 mph 1008.1mb 50f 51f
9:24 9 11 mph 1008.2mb 50f 51f
9:18 7 11 mph 1008.2mb 50f 51f
9:12 9 13 mph 1008.3mb 50f 51f
9:06 8 11 mph 1008.4mb 50f 51f
9:00 8 14 mph 1008.5mb 50f 51f
8:36 8 14 mph 1008.5mb 50f 51f
8:30 8 14 mph 1008.5mb 50f 51f
8:24 10 14 mph 1008.5mb 51f 51f
8:18 8 11 mph 1008.7mb 51f 51f
8:12 8 14 mph 1008.8mb 51f 51f
8:06 7 13 mph 1008.8mb 51f 51f
8:00 8 14 mph 1008.9mb 50f 51f
7:36 8 13 mph 1009.2mb 51f 51f
7:30 7 10 mph 1009.1mb 51f 51f
7:24 7 14 mph 1009.2mb 51f 51f
7:18 8 13 mph 1009.4mb 51f 51f
7:12 7 14 mph 1009.4mb 51f 51f
7:06 7 11 mph 1009.5mb 51f 51f
7:00 9 13 mph 1009.5mb 50f 51f
6:36 6 10 mph 1009.8mb 51f 51f
6:30 8 13 mph 1010mb 51f 51f
6:24 7 10 mph 1010.1mb 51f 51f
6:18 6 9 mph 1010mb 51f 51f
6:12 8 11 mph 1010.1mb 51f 51f
6:06 8 11 mph 1010.3mb 50f 51f
6:00 9 11 mph 1010.4mb 50f 51f
5:36 6 10 mph 1010.5mb 51f 52f
5:30 8 11 mph 1010.6mb 51f 52f
5:24 7 11 mph 1010.6mb 51f 52f
5:18 6 10 mph 1010.7mb 51f 52f
5:12 9 11 mph 1010.7mb 51f 52f
5:06 7 10 mph 1010.8mb 51f 52f
5:00 6 9 mph 1010.8mb 51f 53f
4:36 6 11 mph 1011.2mb 51f 53f
4:30 7 9 mph 1011.4mb 51f 53f
4:24 7 9 mph 1011.5mb 51f 54f
4:18 5 8 mph 1011.6mb 52f 54f
4:12 5 8 mph 1011.7mb 52f 54f
4:06 6 10 mph 1011.8mb 52f 54f
4:00 7 10 mph 1011.9mb 52f 55f
3:54 8 11 mph 1011.9mb 53f 55f
3:48 6 10 mph 1012mb 53f 55f
3:36 9 13 mph 1012.1mb 54f 55f
3:30 7 10 mph 1012.1mb 54f 55f
3:24 6 10 mph 1012.3mb 55f 55f
3:18 6 9 mph 1012.3mb 55f 55f
3:12 6 9 mph 1012.4mb 56f 55f
3:06 6 9 mph 1012.6mb 57f 56f
3:00 7 9 mph 1012.7mb 57f 56f
2:54 6 10 mph 1012.7mb 58f 56f
2:48 5 8 mph 1012.7mb 58f 56f
2:36 6 10 mph 1012.8mb 58f 56f
2:30 7 9 mph 1012.9mb 58f 56f
2:24 7 9 mph 1012.9mb 58f 56f
2:18 7 9 mph 1012.9mb 58f 56f
2:12 6 9 mph 1013mb 59f 56f
2:06 5 9 mph 1013.1mb 59f 56f
2:00 6 10 mph 1013.2mb 59f 56f
1:54 8 10 mph 1013.4mb 59f 56f
1:48 5 8 mph 1013.5mb 59f 56f
1:36 6 8 mph 1013.8mb 59f 55f
1:30 5 8 mph 1013.8mb 59f 55f
1:24 5 8 mph 1013.8mb 59f 55f
1:18 6 9 mph 1013.9mb 59f 55f
1:12 6 8 mph 1014mb 59f 55f
1:06 6 7 mph 1014.1mb 59f 55f
1:00 6 8 mph 1014.2mb 59f 55f
12:54 6 8 mph 1014.4mb 59f 54f
12:48 7 9 mph 1014.5mb 59f 54f
12:36 7 9 mph 1014.6mb 59f 54f
12:30 6 9 mph 1014.6mb 59f 54f
12:24 6 11 mph 1014.6mb 59f 53f
12:18 7 10 mph 1014.7mb 59f 53f
12:12 7 10 mph 1014.7mb 59f 53f
12:06 7 9 mph 1014.7mb 59f 53f
12:00 8 11 mph 1014.8mb 59f 52f
11:54 7 10 mph 1014.7mb 59f 52f
11:48 6 9 mph 1014.8mb 59f 51f
11:36 7 13 mph 1015mb 58f 51f
11:30 6 10 mph 1015mb 58f 51f
11:24 6 9 mph 1015mb 58f 51f
11:18 7 11 mph 1015mb 58f 50f
11:12 8 11 mph 1015mb 58f 50f
11:06 6 11 mph 1015mb 57f 50f
11:00 7 10 mph 1015mb 57f 49f
10:54 8 10 mph 1015.1mb 57f 49f
10:48 7 11 mph 1015.1mb 56f 49f
10:36 8 10 mph 1015.2mb 54f 49f
10:30 6 9 mph 1015.2mb 53f 48f
10:24 7 10 mph 1015.2mb 52f 48f
10:18 8 10 mph 1015.3mb 51f 48f
10:12 7 13 mph 1015.3mb 51f 47f
10:06 7 10 mph 1015.3mb 51f 47f
10:00 7 10 mph 1015.3mb 50f 47f
9:36 7 10 mph 1015.2mb 50f 46f
9:30 7 11 mph 1015.2mb 50f 46f
9:24 8 11 mph 1015.3mb 50f 45f
9:18 7 11 mph 1015.3mb 50f 45f
9:12 7 10 mph 1015.3mb 50f 44f
9:06 8 10 mph 1015.3mb 50f 44f
9:00 8 11 mph 1015.3mb 50f 44f
8:54 8 11 mph 1015.3mb 50f 44f
8:48 8 10 mph 1015.2mb 50f 44f
8:36 8 13 mph 1015.3mb 50f 44f
8:30 8 10 mph 1015.2mb 50f 44f
8:24 8 11 mph 1015.1mb 50f 44f
8:18 7 11 mph 1015.1mb 51f 44f
8:12 7 11 mph 1015.1mb 51f 44f
8:06 8 9 mph 1015.1mb 51f 44f
8:00 7 11 mph 1015.1mb 51f 44f
7:54 7 10 mph 1015.1mb 51f 44f
7:48 7 10 mph 1015.1mb 51f 44f
7:36 7 9 mph 1015.2mb 51f 44f
7:30 7 9 mph 1015.2mb 51f 44f
7:24 6 10 mph 1015.2mb 51f 44f
7:18 7 11 mph 1015.3mb 51f 44f
7:12 8 9 mph 1015.3mb 51f 44f
7:06 7 9 mph 1015.3mb 51f 44f
7:00 8 11 mph 1015.1mb 51f 44f
6:54 7 9 mph 1015.1mb 51f 44f
6:48 7 10 mph 1015mb 51f 44f
6:36 7 9 mph 1014.9mb 51f 44f
6:30 8 10 mph 1014.8mb 51f 44f
6:24 7 10 mph 1014.8mb 51f 44f
6:18 7 10 mph 1014.9mb 51f 44f
6:12 7 9 mph 1014.8mb 51f 44f
6:06 7 9 mph 1014.6mb 51f 44f
6:00 7 10 mph 1014.6mb 51f 44f
5:54 8 10 mph 1014.7mb 51f 44f
5:48 7 9 mph 1014.6mb 51f 44f
5:36 7 10 mph 1014.5mb 51f 44f
5:30 7 8 mph 1014.7mb 51f 44f
5:24 6 8 mph 1014.7mb 51f 44f
5:18 7 10 mph 1014.5mb 51f 44f
5:12 5 8 mph 1014.6mb 51f 44f
5:06 6 9 mph 1014.5mb 51f 44f
5:00 6 9 mph 1014.5mb 51f 44f
4:54 7 9 mph 1014.5mb 51f 44f
4:48 7 8 mph 1014.5mb 51f 44f
4:36 6 9 mph 1014.5mb 51f 44f
4:30 7 8 mph 1014.5mb 51f 44f
4:24 6 9 mph 1014.5mb 51f 44f
4:18 7 9 mph 1014.5mb 51f 44f
4:12 6 8 mph 1014.5mb 51f 45f
4:06 6 9 mph 1014.5mb 51f 45f
4:00 6 8 mph 1014.4mb 51f 45f
3:54 7 9 mph 1014.5mb 51f 45f
3:48 6 9 mph 1014.5mb 51f 45f
3:36 7 9 mph 1014.5mb 51f 45f
3:30 7 9 mph 1014.5mb 51f 45f
3:24 7 10 mph 1014.6mb 51f 45f
3:18 7 9 mph 1014.6mb 51f 45f
3:12 6 8 mph 1014.7mb 51f 46f
3:06 6 8 mph 1014.7mb 52f 46f
3:00 6 8 mph 1014.7mb 52f 46f
2:54 6 7 mph 1014.6mb 52f 46f
2:48 6 9 mph 1014.7mb 53f 46f
2:36 7 9 mph 1014.7mb 54f 46f
2:30 6 9 mph 1014.8mb 55f 46f
2:24 6 8 mph 1014.7mb 56f 46f
2:18 7 9 mph 1014.8mb 57f 47f
2:12 6 9 mph 1014.7mb 58f 47f
2:06 6 8 mph 1014.6mb 58f 47f
2:00 6 7 mph 1014.6mb 58f 47f
1:54 5 7 mph 1014.5mb 58f 48f
1:48 5 7 mph 1014.5mb 58f 48f
1:36 3 8 mph 1014.2mb 58f 48f
1:30 3 7 mph 1014.2mb 58f 48f
1:24 5 9 mph 1014.3mb 58f 48f
1:18 3 7 mph 1014.1mb 58f 49f
1:12 5 7 mph 1014.1mb 58f 48f
1:06 5 7 mph 1014.1mb 58f 48f
1:00 5 6 mph 1014.1mb 58f 49f
12:54 5 7 mph 1014.1mb 58f 49f
12:48 5 9 mph 1014mb 58f 48f
12:36 6 8 mph 1014.1mb 57f 47f
12:30 5 9 mph 1014.2mb 57f 47f
12:24 6 9 mph 1014mb 56f 47f
12:18 6 8 mph 1014mb 56f 47f
12:12 6 8 mph 1013.9mb 55f 47f
12:06 7 10 mph 1013.9mb 54f 47f
12:00 7 9 mph 1013.8mb 53f 47f
jeu. 10/23 11:54 8 10 mph 1013.8mb 52f 47f
11:48 6 8 mph 1013.7mb 52f 47f
11:36 7 10 mph 1013.5mb 52f 47f
11:30 7 9 mph 1013.5mb 52f 47f
11:24 6 9 mph 1013.4mb 52f 47f
11:18 7 10 mph 1013.4mb 52f 48f
11:12 6 9 mph 1013.4mb 52f 48f
11:06 8 11 mph 1013.4mb 52f 48f
11:00 7 10 mph 1013.3mb 52f 48f
10:54 6 10 mph 1013.3mb 52f 48f
10:48 7 9 mph 1013.3mb 52f 48f
10:36 6 8 mph 1013mb 52f 49f
10:30 6 8 mph 1012.9mb 52f 49f
10:24 6 9 mph 1012.8mb 52f 49f
10:18 6 7 mph 1012.8mb 52f 49f
10:12 6 7 mph 1012.8mb 52f 49f
10:06 6 8 mph 1012.7mb 52f 49f
10:00 6 7 mph 1012.7mb 52f 49f
9:54 6 7 mph 1012.7mb 52f 49f
9:48 6 7 mph 1012.6mb 52f 50f
9:36 6 9 mph 1012.7mb 52f 50f
9:30 5 8 mph 1012.6mb 52f 50f
9:24 6 8 mph 1012.5mb 52f 49f
9:18 5 8 mph 1012.6mb 52f 49f
9:12 6 8 mph 1012.5mb 52f 49f
9:06 6 8 mph 1012.4mb 52f 49f
9:00 6 8 mph 1012.2mb 52f 49f
8:54 6 7 mph 1012.1mb 52f 49f
8:48 7 8 mph 1012.1mb 52f 49f
8:36 6 8 mph 1012.1mb 52f 49f
8:30 7 9 mph 1012.1mb 52f 49f
8:24 6 7 mph 1012.1mb 52f 49f
8:18 3 9 mph 1012mb 52f 49f
8:12 8 9 mph 1012mb 52f 49f
8:06 7 10 mph 1011.9mb 52f 49f
8:00 9 11 mph 1011.8mb 52f 49f
7:54 7 10 mph 1011.8mb 52f 50f
7:48 6 9 mph 1011.6mb 52f 51f
7:36 2 5 mph 1011.5mb 52f 50f
7:30 3 5 mph 1011.6mb 52f 51f
7:24 2 5 mph 1011.5mb 52f 51f
7:18  -  6 mph 1011.5mb 52f 52f
7:12 5 6 mph 1011.4mb 52f 52f
7:06 3 5 mph 1011.3mb 52f 53f
7:00 3 5 mph 1011.2mb 52f 55f
6:54 3 8 mph 1011.2mb 52f 55f
6:48 7 10 mph 1011.1mb 52f 55f
6:36 6 9 mph 1011.1mb 52f 54f
6:30 3 9 mph 1011.1mb 52f 55f
6:24 8 10 mph 1011mb 52f 55f
6:18 7 9 mph 1011mb 52f 55f
6:12 9 11 mph 1010.9mb 52f 55f
6:06 7 10 mph 1011mb 52f 55f
6:00 9 13 mph 1011mb 52f 55f
5:54 8 13 mph 1011mb 52f 55f
5:48 9 14 mph 1010.9mb 52f 54f
5:36 6 13 mph 1010.9mb 52f 55f
5:30 8 10 mph 1010.8mb 52f 55f
5:24 7 13 mph 1010.8mb 52f 55f
5:18 9 13 mph 1010.8mb 52f 55f
5:12 9 10 mph 1010.8mb 52f 55f
5:06 9 13 mph 1010.8mb 52f 55f
5:00 9 13 mph 1010.7mb 52f 55f
4:54 9 11 mph 1010.7mb 52f 55f
4:48 8 11 mph 1010.6mb 52f 56f
4:36 8 10 mph 1010.4mb 52f 56f
4:30 7 10 mph 1010.2mb 52f 56f
4:24 8 9 mph 1010.1mb 52f 56f
4:18 7 9 mph 1010mb 52f 56f
4:12 6 8 mph 1009.9mb 52f 56f
4:06 6 10 mph 1010mb 52f 56f
4:00 6 10 mph 1009.9mb 52f 55f
3:54 7 9 mph 1009.9mb 52f 55f
3:48 6 8 mph 1009.9mb 52f 54f
3:36 7 13 mph 1009.8mb 52f 52f
3:30 5 8 mph 1009.7mb 52f 52f
3:24  -  2 mph 1009.6mb 52f 52f
3:18 1 2 mph 1009.5mb 52f 51f
3:12  -  1 mph 1009.4mb 52f 51f
3:06 1 2 mph 1009.3mb 52f 52f
3:00  -  3 mph 1009.2mb 52f 51f
2:54  -  5 mph 1009.1mb 52f 51f
2:48 2 5 mph 1008.9mb 52f 51f
2:36 7 18 mph 1008.9mb 52f 51f
2:30 14 24 mph 1009.4mb 52f 51f
2:24 21 25 mph 1009.7mb 52f 50f
2:18 15 33 mph 1009.3mb 52f 55f
2:12 14 20 mph 1008.9mb 52f 55f
2:06 8 13 mph 1008.5mb 53f 55f
2:00 9 14 mph 1008.5mb 53f 55f
1:54 8 13 mph 1008.4mb 53f 55f
1:48 11 16 mph 1008.5mb 53f 55f
1:36 11 15 mph 1008.4mb 54f 55f
1:30 13 16 mph 1008.5mb 54f 56f
1:24 10 16 mph 1008.3mb 55f 56f
1:18 11 18 mph 1008.3mb 55f 56f
1:12 13 16 mph 1008.3mb 56f 55f
1:06 10 15 mph 1008.2mb 56f 55f
1:00 13 17 mph 1008.2mb 57f 55f
12:54 11 17 mph 1008.2mb 57f 56f
12:48 11 18 mph 1008mb 57f 55f
12:36 10 13 mph 1007.9mb 58f 55f
12:30 11 14 mph 1007.9mb 58f 55f
12:24 13 16 mph 1007.8mb 58f 54f
12:18 11 15 mph 1007.8mb 57f 54f
12:12 11 16 mph 1007.7mb 57f 54f
12:06 13 15 mph 1007.6mb 57f 54f
12:00 9 14 mph 1007.4mb 57f 54f
11:54 8 11 mph 1007.3mb 57f 54f
11:48 10 13 mph 1007.2mb 56f 54f
11:36 9 14 mph 1007mb 55f 54f
11:30 7 13 mph 1006.9mb 54f 54f
11:24 9 14 mph 1006.8mb 53f 53f
11:18 10 14 mph 1006.6mb 53f 53f
11:12 10 14 mph 1006.5mb 52f 53f
11:06 10 15 mph 1006.5mb 52f 53f
11:00 10 15 mph 1006.3mb 52f 53f
10:54 10 15 mph 1006.2mb 52f 53f
10:48 10 15 mph 1006.1mb 52f 53f
10:36 9 17 mph 1005.7mb 52f 52f
10:30 10 15 mph 1005.8mb 52f 52f
10:24 17 21 mph 1005.9mb 52f 51f
10:18 20 26 mph 1006.2mb 52f 52f
10:12 24 31 mph 1006.2mb 52f 53f
10:06 28 33 mph 1006.3mb 52f 56f
10:00 15 28 mph 1005.5mb 52f 56f
9:54 14 24 mph 1005.3mb 52f 56f
9:48 15 21 mph 1005.1mb 52f 56f
9:36 16 23 mph 1004.8mb 52f 56f
9:30 16 20 mph 1004.7mb 52f 55f
9:24 14 18 mph 1004.7mb 52f 55f
9:18 16 22 mph 1004.8mb 52f 54f
9:12 13 15 mph 1004.7mb 52f 53f
9:06 7 9 mph 1004.8mb 52f 50f
9:00 1 3 mph 1004.8mb 52f 49f
8:54 2 6 mph 1004.8mb 52f 49f
8:48 6 8 mph 1004.6mb 52f 49f
8:36 6 7 mph 1004.5mb 52f 49f
8:30 5 7 mph 1004.4mb 52f 49f
8:24 6 8 mph 1004.3mb 52f 49f
8:18 6 8 mph 1004.4mb 52f 49f
8:12 6 7 mph 1004.3mb 52f 49f
8:06 6 8 mph 1004.2mb 52f 49f
8:00 6 8 mph 1004.2mb 52f 49f
7:54 6 8 mph 1004mb 52f 49f
7:48 7 8 mph 1004mb 52f 49f
7:36 6 7 mph 1003.9mb 52f 49f
7:30 5 7 mph 1004mb 52f 49f
7:24 6 7 mph 1003.9mb 52f 49f
7:18 6 8 mph 1003.8mb 52f 49f
7:12 6 8 mph 1003.9mb 52f 50f
7:06 5 6 mph 1003.8mb 52f 50f
7:00 3 6 mph 1003.9mb 52f 51f
6:54 1 3 mph 1003.7mb 52f 52f
6:48 2 5 mph 1003.6mb 52f 54f
6:36 6 11 mph 1003.4mb 52f 52f
6:30 7 14 mph 1003.4mb 52f 52f
6:24 11 21 mph 1003.5mb 52f 52f
6:18 15 31 mph 1003.8mb 52f 51f
6:12 14 21 mph 1004.2mb 52f 55f
6:06 8 15 mph 1003.9mb 52f 55f
6:00 11 16 mph 1003.2mb 52f 55f
5:54 10 20 mph 1003mb 52f 55f
5:48 7 16 mph 1003.1mb 52f 55f
5:36 8 13 mph 1003.1mb 52f 54f
5:30 10 15 mph 1003.2mb 52f 54f
5:24 8 15 mph 1003.2mb 52f 54f
5:18 7 13 mph 1003.1mb 52f 53f
5:12 5 11 mph 1003mb 52f 53f
5:06 5 9 mph 1003.1mb 52f 53f
5:00 7 9 mph 1003mb 52f 53f
4:54 6 11 mph 1002.9mb 52f 53f
4:48 5 9 mph 1002.9mb 52f 53f
4:36 7 11 mph 1003mb 52f 53f
4:30 5 11 mph 1003.1mb 52f 54f
4:24 7 14 mph 1003.2mb 52f 54f
4:18 7 13 mph 1003.1mb 52f 53f
4:12 5 10 mph 1003.1mb 52f 54f
4:06 6 10 mph 1003.1mb 52f 53f
4:00 5 8 mph 1003.2mb 52f 53f
3:54 6 10 mph 1003.4mb 52f 53f
3:48 6 10 mph 1003.5mb 52f 53f
3:36 6 9 mph 1003.4mb 52f 53f
3:30 5 7 mph 1003.3mb 52f 53f
3:24 6 9 mph 1003.4mb 52f 52f
3:18 5 7 mph 1003.3mb 52f 52f
3:12 6 7 mph 1003.3mb 52f 52f
3:06 6 8 mph 1003.3mb 52f 51f
3:00 7 8 mph 1003.3mb 52f 52f
2:54 5 8 mph 1003.5mb 52f 52f
2:48 2 5 mph 1003.6mb 52f 52f
2:36 2 3 mph 1003.6mb 52f 53f
2:30 2 5 mph 1003.6mb 52f 54f
2:24 2 5 mph 1003.6mb 52f 54f
2:18 1 3 mph 1003.6mb 52f 55f
2:12 2 6 mph 1003.7mb 52f 56f
2:06 2 10 mph 1003.8mb 52f 57f
2:00 8 11 mph 1003.8mb 52f 57f
1:54 9 11 mph 1003.8mb 52f 57f
1:48 11 13 mph 1003.8mb 52f 56f
1:36 11 15 mph 1003.8mb 53f 56f
1:30 10 14 mph 1003.7mb 53f 57f
1:24 11 17 mph 1003.7mb 53f 57f
1:18 15 20 mph 1003.7mb 53f 57f
1:12 13 17 mph 1003.7mb 53f 57f
1:06 9 16 mph 1003.7mb 53f 57f
1:00 13 17 mph 1003.8mb 53f 57f
12:54 14 17 mph 1003.7mb 53f 57f
12:48 11 14 mph 1003.7mb 53f 57f
12:36 9 13 mph 1003.6mb 53f 57f
12:30 10 13 mph 1003.4mb 53f 57f
12:24 8 13 mph 1003.4mb 53f 57f
12:18 9 14 mph 1003.3mb 53f 57f
12:12 8 14 mph 1003.4mb 53f 57f
12:06 9 13 mph 1003.4mb 53f 57f
12:00 10 14 mph 1003.3mb 53f 57f
mer. 10/22 11:54 8 16 mph 1003.3mb 53f 57f
11:48 10 14 mph 1003.1mb 53f 57f
11:36 13 16 mph 1003.1mb 53f 57f
11:30 14 18 mph 1003.1mb 53f 56f
11:24 14 20 mph 1003mb 53f 56f
11:18 15 18 mph 1002.9mb 53f 56f
11:12 15 18 mph 1002.8mb 53f 56f
11:06 13 16 mph 1002.7mb 53f 56f
11:00 11 14 mph 1002.6mb 53f 56f
10:54 11 16 mph 1002.5mb 53f 55f
10:48 8 13 mph 1002.4mb 53f 54f
10:36 7 13 mph 1002.2mb 53f 52f
10:30 11 15 mph 1002.1mb 53f 51f
10:24 11 17 mph 1002mb 53f 50f
10:18 14 36 mph 1001.8mb 53f 55f
10:12 18 25 mph 1001.8mb 53f 56f
10:06 14 20 mph 1001.3mb 53f 55f
10:00 14 18 mph 1001.3mb 53f 55f
9:54 15 20 mph 1001.2mb 53f 55f
9:48 14 17 mph 1001.3mb 53f 55f
9:36 7 10 mph 1001.1mb 53f 54f
9:30 5 7 mph 1001.1mb 53f 53f
9:24 5 7 mph 1001mb 53f 53f
9:18 5 7 mph 1000.9mb 53f 53f
9:12 6 7 mph 1000.9mb 53f 53f
9:06 5 6 mph 1000.9mb 53f 52f
9:00 5 7 mph 1000.8mb 53f 52f
8:54 3 6 mph 1000.7mb 53f 52f
8:48 5 6 mph 1000.8mb 53f 52f
8:36  -  2 mph 1000.3mb 53f 51f
8:30 1 2 mph 1000.2mb 53f 51f
8:24 1 3 mph 1000.2mb 53f 51f
8:18 5 7 mph 1000.2mb 53f 52f
8:12 6 15 mph 1000.2mb 53f 51f
8:06 13 26 mph 1000.6mb 53f 53f
8:00 15 28 mph 1001mb 53f 55f
7:54 6 7 mph 999.8mb 53f 55f
7:48 3 6 mph 999.7mb 53f 55f
7:36 6
mph
999.6mb 53f 55f
7:30 3 6 mph 999.5mb 53f 54f
7:24 5 8 mph 999.6mb 53f 54f
7:18 6 8 mph 999.5mb 53f 54f
7:12 7 9 mph 999.4mb 53f 54f
7:06 7 9 mph 999.4mb 53f 54f
7:00 7 11 mph 999.4mb 53f 54f
6:54 10 15 mph 999mb 53f 54f
6:48 10 14 mph 998.7mb 53f 53f
6:36 9 21 mph 998.5mb 53f 54f
6:30 6 9 mph 998.6mb 53f 53f
6:24 3 6 mph 998.6mb 53f 53f
6:18 2 3 mph 998.6mb 53f 54f
6:12 2 3 mph 998.5mb 53f 54f
6:06 3 5 mph 998.5mb 53f 54f
6:00 3 6 mph 998.5mb 53f 54f
5:54 3 6 mph 998.5mb 53f 54f
5:48 3 5 mph 998.4mb 53f 54f
5:36 3 5 mph 998.8mb 53f 54f
5:30 2 5 mph 998.7mb 53f 54f
5:24  -  6 mph 998.6mb 53f 54f
5:18 2 5 mph 998.6mb 53f 54f
5:12 2 5 mph 998.7mb 53f 55f
5:06 2 3 mph 998.9mb 53f 55f
5:00 2 6 mph 999.1mb 53f 55f
4:54 2 5 mph 999.1mb 53f 55f
4:48 2 6 mph 999.2mb 53f 55f
4:36 5 9 mph 998.9mb 53f 55f
4:30 6 9 mph 999.2mb 53f 55f
4:24 6 9 mph 999.4mb 53f 55f
4:18 8 11 mph 999.4mb 53f 55f
4:12 6 10 mph 999.8mb 53f 55f
4:06 6 8 mph 999.8mb 53f 55f
4:00 7 13 mph 999.9mb 53f 56f
3:54 6 11 mph 1000mb 53f 56f
3:48 6 9 mph 1000.2mb 53f 56f
3:36 5 7 mph 1000.3mb 53f 56f
3:30 6 8 mph 1000.3mb 53f 56f
3:24 6 9 mph 1000.2mb 53f 57f
3:18 5 7 mph 1000.3mb 53f 57f
3:12 3 5 mph 1000.4mb 53f 57f
3:06 3 6 mph 1000.6mb 53f 57f
3:00 3 5 mph 1000.6mb 53f 57f
2:54 5 7 mph 1000.8mb 53f 57f
2:48 5 8 mph 1000.8mb 53f 57f
2:36 5 9 mph 1001.2mb 53f 57f
2:30 6 9 mph 1001.3mb 53f 57f
2:24 5 8 mph 1001.4mb 53f 58f
2:18 6 10 mph 1001.5mb 53f 57f
2:12 5 8 mph 1001.6mb 53f 57f
2:06 3 8 mph 1001.8mb 53f 57f
2:00 3 8 mph 1001.8mb 53f 57f
1:54 6 10 mph 1001.9mb 53f 58f
1:48 6 10 mph 1002.2mb 53f 58f
1:36 6 10 mph 1002.5mb 53f 57f
1:30 5 10 mph 1002.4mb 53f 57f
1:24 8 14 mph 1002.4mb 53f 57f
1:18 5 9 mph 1002.7mb 53f 57f
1:12 6 13 mph 1002.5mb 53f 56f
1:06 7 9 mph 1002.7mb 53f 56f
1:00 7 10 mph 1003mb 53f 56f
12:54 5 8 mph 1002.9mb 53f 56f
12:48 3 8 mph 1002.9mb 53f 56f
12:36 5 9 mph 1003.2mb 53f 56f
12:30 6 9 mph 1003.4mb 53f 56f
12:24 5 9 mph 1003.3mb 53f 56f
12:18 6 9 mph 1003.2mb 53f 56f
12:12 6 9 mph 1003.1mb 53f 56f
12:06 7 15 mph 1003.2mb 53f 56f
12:00 8 15 mph 1003.6mb 53f 56f
11:54 6 9 mph 1003.7mb 53f 56f
11:48 5 8 mph 1003.5mb 53f 56f
11:36 5 7 mph 1003.3mb 53f 56f
11:30 3 10 mph 1003.5mb 53f 56f
11:24 5 11 mph 1003.7mb 53f 56f
11:18 6 11 mph 1003.7mb 53f 56f
11:12 6 11 mph 1003.6mb 53f 55f
11:06 6 9 mph 1003.6mb 53f 55f
11:00 6 8 mph 1003.7mb 53f 55f
10:54 5 8 mph 1003.6mb 53f 54f
10:48 5 8 mph 1003.5mb 53f 54f
10:36 6 7 mph 1003.6mb 53f 53f
10:30 3 6 mph 1003.5mb 53f 53f
10:24 6 8 mph 1003.5mb 53f 53f
10:18 3 6 mph 1003.4mb 53f 52f
10:12 5 6 mph 1003.5mb 53f 52f
10:06 5 6 mph 1003.5mb 53f 52f
10:00 5 6 mph 1003.5mb 53f 52f
9:54 3 6 mph 1003.6mb 53f 51f
9:48 5 7 mph 1003.5mb 53f 51f
9:36 3 8 mph 1003.6mb 53f 51f
9:30 5 8 mph 1003.4mb 53f 51f
9:24 6 9 mph 1003.3mb 54f 51f
9:18 7 9 mph 1003.4mb 54f 52f
9:12 6 9 mph 1003.3mb 54f 52f
9:06 3 8 mph 1003.4mb 54f 52f
9:00 6 7 mph 1003.5mb 54f 51f
8:54 5 6 mph 1003.5mb 54f 51f
8:48 5 7 mph 1003.4mb 54f 51f
8:36 6 7 mph 1003.3mb 54f 51f
8:30 5 6 mph 1003.1mb 54f 51f
8:24 5 7 mph 1003.2mb 54f 51f
8:18 6 8 mph 1003.2mb 54f 51f
8:12 6 7 mph 1003.3mb 54f 51f
8:06 6 7 mph 1003.2mb 54f 51f
8:00 6 7 mph 1003.2mb 54f 51f
7:54 6 7 mph 1003.1mb 54f 51f
7:48 6 7 mph 1003mb 54f 51f
7:36 6 7 mph 1002.9mb 54f 51f
7:30 6
mph
1003.1mb 54f 52f
7:24 5 6 mph 1003.1mb 54f 52f
7:18 5 6 mph 1003.1mb 54f 52f
7:12 5 6 mph 1003.1mb 54f 52f
7:06 6 7 mph 1003.1mb 54f 52f
7:00 5
mph
1003.1mb 54f 52f
6:54 3 5 mph 1003mb 54f 53f
6:48 5
mph
1003mb 54f 53f
6:36 2
mph
1002.9mb 54f 56f
6:30 1 3 mph 1002.9mb 54f 57f
6:24 3 8 mph 1002.9mb 54f 57f
6:18 6 7 mph 1002.8mb 54f 58f
6:12 6 9 mph 1002.8mb 54f 57f
6:06 6 9 mph 1002.7mb 54f 57f
6:00 7 10 mph 1002.6mb 54f 57f
5:54 6 9 mph 1002.5mb 54f 57f
5:48 6 9 mph 1002.5mb 54f 57f
5:36 8 11 mph 1002.4mb 54f 57f
5:30 9 13 mph 1002.4mb 54f 57f
5:24 9 13 mph 1002.4mb 54f 57f
5:18 9 10 mph 1002.3mb 54f 57f
5:12 8 11 mph 1002.2mb 54f 57f
5:06 10 15 mph 1002.1mb 54f 57f
5:00 11 15 mph 1002mb 54f 57f
4:54 11 16 mph 1001.7mb 54f 57f
4:48 10 14 mph 1001.6mb 54f 58f
4:36 9 14 mph 1001.3mb 54f 58f
4:30 14 16 mph 1001.4mb 54f 58f
4:24 14 17 mph 1001.2mb 54f 58f
4:18 11 15 mph 1001.5mb 54f 58f
4:12 10 14 mph 1001.4mb 54f 58f
4:06 9 13 mph 1001.4mb 54f 58f
4:00 10 14 mph 1001.3mb 54f 58f
3:54 14 16 mph 1001.2mb 54f 58f
3:48 13 17 mph 1001.2mb 54f 58f
3:36 14 17 mph 1000.8mb 54f 58f
3:30 15 17 mph 1000.9mb 54f 58f
3:24 13 15 mph 1000.8mb 54f 58f
3:18 11 14 mph 1000.6mb 54f 58f
3:12 14 18 mph 1000.5mb 54f 58f
3:06 15 17 mph 1000.4mb 54f 58f
3:00 13 18 mph 999.8mb 54f 58f
2:54 16 21 mph 1000mb 54f 58f
2:48 16 25 mph 999.9mb 55f 58f
2:36 25 33 mph 999.3mb 55f 59f
2:30 22 29 mph 999.2mb 55f 59f
2:24 16 24 mph 999.3mb 55f 58f
2:18 20 30 mph 999.4mb 55f 57f
2:12 18 31 mph 999.6mb 55f 56f
2:06 25 34 mph 999.7mb 55f 58f
2:00 23 39 mph 999.4mb 55f 57f
1:54 24 49 mph 999.2mb 56f 57f
1:48 22 40 mph 999.1mb 56f 57f
1:36 24 39 mph 999.8mb 57f 56f
1:30 18 30 mph 999.5mb 57f 56f
1:24 22 36 mph 999.7mb 57f 56f
1:18 20 31 mph 999.6mb 58f 55f
1:12 22 39 mph 999.7mb 58f 55f
1:06 20 32 mph 999.5mb 58f 55f
1:00 21 36 mph 999.5mb 58f 55f
12:54 21 33 mph 999.6mb 58f 55f
12:48 24 39 mph 999.7mb 58f 55f
12:36 22 36 mph 999.7mb 58f 55f
12:30 22 44 mph 999.6mb 58f 55f
12:24 24 39 mph 999.5mb 58f 55f
12:18 21 37 mph 999.6mb 58f 55f
12:12 28 44 mph 999.6mb 58f 55f
12:06 22 36 mph 999.7mb 58f 55f
12:00 24 37 mph 999.8mb 58f 56f
mar. 10/21 11:54 18 44 mph 1000mb 58f 55f
11:48 25 37 mph 999.9mb 58f 55f
11:36 22 44 mph 1000mb 58f 55f
11:30 28 39 mph 999.9mb 58f 55f
11:24 22 37 mph 1000.1mb 58f 55f